PORT of SANDUSKY

ประเทศ: USA ประเทศ: USA [US]
แลตติจูด/ลองกิจูด: 41.4675 / -82.7075 แสดงบนแผนที่
เวลาท้องถิ่น:  [UTC -4]
UN/LOCODE: USSDW
เรือทีอยู่ในท่า: 1

เวลาถึง/ออกเดินทางล่าสุด

ชื่อเรือ เวลาถึง ออกเดินทาง
PELEE ISLANDER 2014-07-11 19:30:00 2014-07-11 20:44:00
JETEXPRESS3 2014-07-11 19:24:00 2014-07-11 20:16:00
JETEXPRESS3 2014-07-11 17:09:00 2014-07-11 17:55:00
JOHN FRANCIS 2014-07-11 16:52:00
JETEXPRESS3 2014-07-11 14:56:00 2014-07-11 15:42:00

เวลาถึงที่คาดหมาย

ชื่อเรือ เวลาถึงที่วางไว้ (เวลาท้องถิ่น) เวลาถึงโดยประมาณ (เวลาท้องถิ่น)
ไม่พบรายการ

Wind Forecast

  เวลา (UTC) ความเร็ว Direction Temperature
2014-07-12 00:00:00 7 knots 74° 18°C
2014-07-12 03:00:00 6 knots 109° 17°C
2014-07-12 06:00:00 5 knots 145° 17°C
2014-07-12 09:00:00 5 knots 173° 17°C
2014-07-12 12:00:00 4 knots 169° 17°C
2014-07-12 15:00:00 2 knots 272° 18°C
2014-07-12 18:00:00 2 knots 231° 18°C
2014-07-12 21:00:00 3 knots 209° 19°C
2014-07-13 00:00:00 3 knots 188° 20°C
2014-07-13 03:00:00 9 knots 184° 20°C
2014-07-13 06:00:00 13 knots 224° 19°C
2014-07-13 09:00:00 17 knots 218° 19°C
2014-07-13 12:00:00 16 knots 228° 19°C
2014-07-13 15:00:00 14 knots 256° 21°C
2014-07-13 18:00:00 9 knots 260° 21°C
2014-07-13 21:00:00 10 knots 243° 21°C
2014-07-14 00:00:00 11 knots 254° 21°C